Lid_Strength_Index
7 7 7 7 7 7 8 7 9 8 8 6 6 6 5 5 5 5 5 4 4 4 3 2 2 2 1 1 1 0 1 1 1 -0 -1 -0 0 0 -0 -0 -0 -0 -0 -0
8 7 7 8 7 7 7 7 7 7 7 5 5 5 5 6 5 5 5 5 4 3 3 3 2 2 1 1 1 0 1 1 0 0 0 0 0 0 -0 0 0 -0 0 0
9 8 8 9 7 7 6 6 6 8 6 6 6 6 6 5 5 5 5 4 4 4 3 2 2 2 2 1 1 1 1 1 1 1 1 1 0 0 0 0 0 0 0 0
9 9 13 7 6 6 6 6 5 5 6 6 6 5 5 4 5 5 4 4 4 3 3 2 2 1 1 1 0 1 1 1 1 1 1 1 0 1 0 0 1 1 0 -0
11 10 8 7 7 7 7 7 5 6 6 6 6 5 6 4 4 4 4 3 3 2 2 2 2 1 1 1 1 1 2 2 1 2 1 1 1 1 0 1 1 1 -0 -0
9 12 12 7 7 6 6 10 5 6 6 6 6 8 7 4 4 4 4 3 3 2 2 3 4 2 2 2 2 2 2 1 1 2 1 2 1 1 1 0 1 1 1 1
9 11 8 7 7 6 11 10 6 5 5 5 6 6 5 4 4 3 4 4 3 2 3 4 4 4 3 3 3 3 3 3 4 5 3 3 3 2 3 1 2 2 4 6
9 10 12 6 6 9 8 6 6 5 5 5 5 5 5 4 4 4 5 4 3 4 4 5 4 4 4 5 4 3 3 4 5 5 7 6 6 5 4 4 4 3 4 5
8 8 7 5 6 5 5 6 6 5 4 5 5 5 5 5 5 4 3 3 3 4 5 5 5 4 5 5 4 4 5 5 5 6 7 8 7 7 7 6 8 9 9 9
9 6 6 6 5 5 4 5 4 4 4 4 5 5 5 5 5 4 4 4 4 5 6 6 5 4 4 5 4 4 5 6 6 6 7 7 7 7 8 8 8 9 9 9
7 6 6 6 5 5 5 4 4 4 4 4 4 5 5 5 5 5 5 5 4 5 4 5 4 4 4 4 4 4 5 5 6 7 8 10 11 10 9 9 8 7 7 7
8 6 7 6 5 4 5 5 4 4 4 4 4 5 5 5 5 4 4 4 4 4 4 3 4 3 3 3 3 3 4 4 6 7 8 8 9 10 12 12 12 13 12 9
6 4 5 4 4 4 4 4 4 4 4 5 4 4 4 5 4 4 4 4 4 4 4 3 2 2 2 2 2 2 3 4 4 4 4 5 6 7 10 11 12 13 13 13
3 4 5 4 5 3 3 3 4 3 3 3 3 3 3 3 3 3 3 3 3 2 2 2 2 3 2 2 2 3 4 8 6 6 6 6 5 4 4 4 5 6 12 10
4 3 3 3 3 3 3 3 4 4 4 4 3 3 3 3 3 3 3 3 3 2 2 2 3 3 3 4 5 6 6 6 6 6 6 6 5 5 5 5 5 5 6 9
4 3 3 4 4 3 3 4 4 4 4 3 3 3 2 2 2 2 3 2 3 3 3 3 3 4 4 4 4 5 5 6 5 5 5 5 4 4 5 5 5 5 6 6
5 5 4 5 4 4 4 3 3 4 3 3 3 2 2 2 3 3 3 2 2 2 2 4 4 4 4 3 3 4 4 4 6 4 4 4 4 4 4 4 5 6 6 7
3 3 3 3 3 3 3 3 3 3 3 3 2 2 2 3 3 3 2 2 2 3 4 4 4 3 3 3 3 3 3 4 3 3 3 3 2 2 2 3 3 4 5 7
2 3 3 3 2 2 2 2 3 2 2 2 2 3 2 2 2 2 2 2 2 3 3 3 4 3 2 2 3 3 3 2 2 2 1 4 3 3 3 3 3 4 5 6
3 2 2 2 2 2 2 2 2 2 2 2 2 2 3 3 2 2 1 2 1 2 2 3 3 2 1 1 3 2 2 2 2 1 1 2 2 2 2 5 3 3 3 4
3 3 3 3 3 2 2 1 2 2 2 2 2 2 2 2 2 1 2 2 1 1 1 2 1 1 1 1 2 1 0 1 1 2 2 2 2 3 3 2 2 2 3 3
3 3 3 3 3 2 2 2 2 2 2 2 2 2 2 2 2 2 1 1 0 4 2 1 1 3 2 4 1 1 1 1 2 3 4 2 3 3 2 2 2 2 2 2
3 3 3 3 3 3 2 2 2 2 3 2 2 2 2 2 2 3 3 1 1 3 1 1 5 5 4 2 2 3 2 3 4 4 3 3 2 2 3 3 3 3 3 3
3 3 3 3 3 3 4 3 2 2 2 2 1 2 2 3 2 1 2 5 6 4 3 5 5 6 5 4 5 5 5 5 5 5 4 8 3 3 4 4 4 3 3 3
3 3 3 3 4 3 3 3 3 2 3 3 2 3 3 4 5 4 3 5 6 4 4 6 6 5 4 4 4 4 4 5 5 4 4 3 3 4 4 4 3 2 2 1
3 3 3 2 3 3 2 2 3 3 3 5 5 4 4 4 4 4 4 5 3 4 3 3 3 3 3 3 4 3 4 3 3 3 4 3 3 3 2 2 1 1 1 1
3 4 3 3 2 2 2 3 4 4 4 5 5 4 4 4 4 3 4 3 3 3 3 3 3 3 2 3 3 4 4 3 6 3 2 1 1 1 1 1 1 0 0 1